Regional Weather Roundup
Issued by NWS Little Rock, AR

Home | Current Version | Previous Version | Graphics & Text | Print | Product List | Glossary On
Versions: 1 2 3 4 5 6 7 8 9 10 11 12 13 14 15 16 17 18 19 20 21 22 23 24 25 26 27 28 29 30 31 32 33 34 35 36 37 38 39 40 41 42 43 44 45 46 47 48 49 50
000
ASUS44 KLZK 220005
RWRLZK

WEATHER ROUNDUP FOR ARKANSAS
NATIONAL WEATHER SERVICE LITTLE ROCK AR
700 PM CDT THU AUG 21 2014

NOTE: "FAIR" INDICATES FEW OR NO CLOUDS BELOW 12,000 FEET WITH NO
SIGNIFICANT WEATHER AND/OR OBSTRUCTIONS TO VISIBILITY.

ARZ001-003-010-029-220100-
NORTHWEST ARKANSAS

CITY           SKY/WX    TMP DP  RH WIND       PRES   REMARKS
FAYETTEVILLE   SUNNY     85  71  63 S14       30.01S HX  90
6HR MIN TEMP:  85; 6HR MAX TEMP:  90;

FORT SMITH     SUNNY     91  72  53 S9        29.97R HX  98
6HR MIN TEMP:  91; 6HR MAX TEMP:  94;

HARRISON       SUNNY     84  69  60 S6        30.02S HX  88
6HR MIN TEMP:  84; 6HR MAX TEMP:  91;

BENTONVILLE    SUNNY     88  68  51 SW13      30.02S HX  91
6HR MIN TEMP:  88; 6HR MAX TEMP:  93;

ROGERS         SUNNY     88  67  49 SW12      30.01S HX  91
6HR MIN TEMP:  88; 6HR MAX TEMP:  93;

SILOAM SPGS    SUNNY     86  68  54 S12       30.01S HX  89
6HR MIN TEMP:  86; 6HR MAX TEMP:  91;

HIGHFILL       SUNNY     87  68  52 S14       30.00S HX  90
6HR MIN TEMP:  87; 6HR MAX TEMP:  93;

SPRINGDALE     MOSUNNY   88  70  55 S12G23    30.03R HX  92
$$

ARZ004-005-016-220100-
NORTH CENTRAL ARKANSAS

CITY           SKY/WX    TMP DP  RH WIND       PRES   REMARKS
BATESVILLE     PTCLDY    90  70  51 S12G17    29.99S HX  95
6HR MIN TEMP:  90; 6HR MAX TEMP:  97;

FLIPPIN        CLEAR     91  64  40 S7        29.98S HX  93
6HR MIN TEMP:  91; 6HR MAX TEMP:  95;

MTN HOME       CLEAR     90  66  45 SW3       29.97F HX  92
6HR MIN TEMP:  90; 6HR MAX TEMP:  96;

$$

ARZ040-041-220100-
WEST CENTRAL ARKANSAS

CITY           SKY/WX    TMP DP  RH WIND       PRES   REMARKS
MENA           SUNNY     88  75  66 CALM      30.04S HX  97
MOUNT IDA      SUNNY     86  73  65 VRB3      30.02S HX  93
6HR MIN TEMP:  85; 6HR MAX TEMP:  89;

$$

ARZ009-017-025-026-028-220100-
NORTHEAST ARKANSAS

CITY           SKY/WX    TMP DP  RH WIND       PRES   REMARKS
CORNING        LGT RAIN  90  73  58 S15       29.97S HX  98
JONESBORO      PTCLDY    88  73  61 S10       29.99S HX  95
6HR MIN TEMP:  88; 6HR MAX TEMP:  95;

NEWPORT        PTCLDY    89  73  59 S13       30.00S HX  96
6HR MIN TEMP:  89; 6HR MAX TEMP:  95;

WALNUT RIDGE   MOCLDY    90  70  51 S15       29.96S HX  95
6HR MIN TEMP:  90; 6HR MAX TEMP:  93;

BLYTHEVILLE    PTCLDY    87  78  74 S6        30.00S HX 100
6HR MIN TEMP:  87; 6HR MAX TEMP:  92;

$$

ARZ022-023-033-042-044-220100-
CENTRAL ARKANSAS

CITY           SKY/WX    TMP DP  RH WIND       PRES   REMARKS
LITTLE ROCK    PTCLDY    88  71  57 S8        30.02S HX  94
6HR MIN TEMP:  88; 6HR MAX TEMP:  92;

N LITTLE ROCK  PTCLDY    87  74  64 SW13G20   30.02S HX  95
6HR MIN TEMP:  87; 6HR MAX TEMP:  92;

JACKSONVILLE   CLEAR     88  73  61 S9        30.02S HX  95
6HR MIN TEMP:  88; 6HR MAX TEMP:  93;

SEARCY           N/A     88  74  63 CALM        N/A  HX  96
6HR MIN TEMP:  88; 6HR MAX TEMP:  94;

HOT SPRINGS    CLEAR     88  72  58 VRB7      30.04S HX  94
6HR MIN TEMP:  87; 6HR MAX TEMP:  91;

RUSSELLVILLE   CLEAR     89  73  59 VRB3      30.00S HX  97
6HR MIN TEMP:  89; 6HR MAX TEMP:  94;

CLINTON        FAIR      91  68  46 S5        29.99S HAZE    HX  95
$$

ARZ036-220100-
EAST ARKANSAS

CITY           SKY/WX    TMP DP  RH WIND       PRES   REMARKS
WEST MEMPHIS   CLEAR     88  75  65 S7        30.01S HX  97
6HR MIN TEMP:  88; 6HR MAX TEMP:  93;

$$

ARZ050-053-066-070-073-220100-
SOUTHWEST ARKANSAS

CITY           SKY/WX    TMP DP  RH WIND       PRES   REMARKS
ARKADELPHIA    FAIR      89  78  70 CALM      30.03S HX 102
6HR MIN TEMP:  89; 6HR MAX TEMP:  93;

CAMDEN         CLEAR     90  72  55 S5        30.04R HX  96
TEXARKANA      SUNNY     91  72  53 S9        30.02S HX  98
6HR MIN TEMP:  88; 6HR MAX TEMP:  94;

EL DORADO      CLEAR     89  75  63 SE5       30.06R HX  99
6HR MIN TEMP:  87; 6HR MAX TEMP:  92;

DE QUEEN       SUNNY     89  76  65 SE5       29.98S HX 100
6HR MIN TEMP:  87; 6HR MAX TEMP:  92;

$$

ARZ056-057-069-220100-
SOUTHEAST ARKANSAS

CITY           SKY/WX    TMP DP  RH WIND       PRES   REMARKS
PINE BLUFF     CLEAR     88  73  61 S9        30.03F HX  95
6HR MIN TEMP:  88; 6HR MAX TEMP:  92;

STUTTGART      CLEAR     90  75  62 S8        30.03F HX 100
6HR MIN TEMP:  90; 6HR MAX TEMP:  93;

MONTICELLO     CLEAR     89  74  60 S5        30.06R HX  98
6HR MIN TEMP:  89; 6HR MAX TEMP:  93;


$$





USA.gov is the U.S. government's official web portal to all federal, state and local government web resources and services.